{"data":{"norad_id":53813,"intl_designator":"2022-112A","name":"ZHONGXING-1E","alt_names":[],"object_type":"PAYLOAD","status":"ACTIVE","operator":null,"country":"PRC","launch_date":"2022-09-13","launch_site_code":"WSC","launch_vehicle":null,"mission":null,"orbit_class":"UNKNOWN","rcs_meters":null,"size_class":null,"mass_kg":null,"dimensions":null,"purposes":["comms"],"wikipedia_slug":null,"has_3d_model":false,"image_url":null,"decayed_at":null,"tle_current":{"epoch":"2026-09-20T01:54:44.878176Z","epoch_age_seconds":54633,"freshness":"FRESH","line1":"1 53813U 22112A   26263.07968609 -.00000154  00000+0  00000+0 0  9991","line2":"2 53813   0.0474 316.5857 0002756 309.1902 203.3278  1.00273136 14807","mean_motion":1.00273136,"eccentricity":0.0002756,"inclination_deg":0.0474,"raan_deg":316.5857,"arg_perigee_deg":309.1902,"mean_anomaly_deg":203.3278,"bstar":0,"rev_number":1480,"period_min":1436.0775552088,"perigee_km":35774.59573535,"apogee_km":35797.836726851,"semimajor_km":42164.3532311,"source":"CELESTRAK","updated_at":"2026-09-20T09:00:35.305878Z"}}}